Location: Newark
(42.8481°N, 0.4872°E)
Time: 13:07:11
(UTC+00:00)

A-11 Canister half - Pass Details

Date: 31 October 2020
Orbit: 1525 x 1684 km, 47.3° (Epoch: 01 December)

Event Time Altitude Azimuth Distance (km) Brightness Sun altitude
Rises 17:17:46 0° 284° (WNW) 4,743 12.8 -5.5°
Reaches altitude 10° 17:20:54 10° 286° (WNW) 3,741 12.1 -6.0°
Maximum altitude 17:30:20 72° 11° (NNE) 1,597 9.1 -7.7°
Drops below altitude 10° 17:39:37 10° 96° (E) 3,690 10.4 -9.4°
Enters shadow 17:39:56 - 97° (E) 3,792 10.5 -9.4°
Sets 17:42:41 0° 99° (E) 4,676 - -9.9°
